PP5CFL-13 Weather Reports


time (UTC)temp
C
wind
direction
speed
KPH
gust
KPH
rain 1hr
cm
rain 24hr
cm
rain mn
cm
humidity
%
barometer
mb
20260507213345 25 0.0 0.0 0.00 0.00 0.00 85 1011.2
20260507212845 25 0.0 0.0 0.00 0.00 0.00 87 1011.2
20260507212345 25 0.0 0.0 0.00 0.00 0.00 87 1011.2
20260507211845 25 0.0 0.0 0.00 0.00 0.00 85 1011.3
20260507211345 25 0.0 0.0 0.00 0.00 0.00 86 1011.2
20260507210845 25 0.0 0.0 0.00 0.00 0.00 85 1011.2
20260507210345 25 0.0 0.0 0.00 0.00 0.00 85 1011.3
20260507205845 25 0.0 0.0 0.00 0.00 0.00 85 1011.2
20260507205345 25 0.0 0.0 0.00 0.00 0.00 88 1011.1
20260507204845 25 0.0 0.0 0.00 0.00 0.00 88 1011.0
20260507204345 25 0.0 0.0 0.00 0.00 0.00 86 1010.8
20260507203845 25 0.0 0.0 0.00 0.00 0.00 86 1010.9
20260507203345 24 0.0 0.0 0.00 0.00 0.00 88 1011.0
20260507202845 25 0.0 0.0 0.00 0.00 0.00 85 1010.9
20260507202345 25 0.0 0.0 0.00 0.00 0.00 87 1010.9
20260507201845 25 0.0 0.0 0.00 0.00 0.00 88 1010.7
20260507201345 25 0.0 0.0 0.00 0.00 0.00 85 1010.9
20260507200845 25 0.0 0.0 0.00 0.00 0.00 85 1011.0
20260507200345 25 0.0 0.0 0.00 0.00 0.00 85 1011.0
20260507195845 25 0.0 0.0 0.00 0.00 0.00 85 1011.2
20260507195345 25 0.0 0.0 0.00 0.00 0.00 83 1010.9
20260507194845 25 0.0 0.0 0.00 0.00 0.00 82 1011.0
20260507194345 25 0.0 0.0 0.00 0.00 0.00 82 1010.8
20260507193845 25 0.0 0.0 0.00 0.00 0.00 82 1010.9
20260507193345 25 0.0 0.0 0.00 0.00 0.00 83 1010.8
20260507192845 25 0.0 0.0 0.00 0.00 0.00 83 1010.7
20260507192345 25 0.0 0.0 0.00 0.00 0.00 84 1010.6
20260507191845 25 0.0 0.0 0.00 0.00 0.00 86 1010.6
20260507191345 24 0.0 0.0 0.00 0.00 0.00 87 1010.8
20260507190845 25 0.0 0.0 0.00 0.00 0.00 85 1010.9
20260507190345 24 0.0 0.0 0.00 0.00 0.00 87 1010.9
20260507185845 24 0.0 0.0 0.00 0.00 0.00 86 1010.8
20260507185345 25 0.0 0.0 0.00 0.00 0.00 83 1010.8
20260507184845 24 0.0 0.0 0.00 0.00 0.00 86 1010.8
20260507184345 24 0.0 0.0 0.00 0.00 0.00 86 1010.8
20260507183845 24 0.0 0.0 0.00 0.00 0.00 87 1010.8
20260507183345 23 0.0 0.0 0.00 0.00 0.00 87 1010.8
20260507182845 23 0.0 0.0 0.00 0.00 0.00 87 1010.8
20260507182345 23 0.0 0.0 0.00 0.00 0.00 87 1010.9
20260507181845 23 0.0 0.0 0.00 0.00 0.00 87 1011.1
20260507181345 24 0.0 0.0 0.00 0.00 0.00 88 1011.1
20260507180845 24 0.0 0.0 0.00 0.00 0.00 87 1011.1
20260507180345 24 0.0 0.0 0.00 0.00 0.00 87 1011.1
20260507175845 24 0.0 0.0 0.00 0.00 0.00 87 1011.2
20260507175345 24 0.0 0.0 0.00 0.00 0.00 87 1011.2
20260507174845 24 0.0 0.0 0.00 0.00 0.00 87 1011.2
20260507174345 24 0.0 0.0 0.00 0.00 0.00 86 1011.3
20260507173845 24 0.0 0.0 0.00 0.00 0.00 85 1011.3
20260507173345 24 0.0 0.0 0.00 0.00 0.00 85 1011.3
20260507172845 24 0.0 0.0 0.00 0.00 0.00 84 1011.4
20260507172345 24 0.0 0.0 0.00 0.00 0.00 85 1011.4
20260507171845 24 0.0 0.0 0.00 0.00 0.00 85 1011.5
20260507171345 24 0.0 0.0 0.00 0.00 0.00 84 1011.6
20260507170845 24 0.0 0.0 0.00 0.00 0.00 84 1011.6
20260507170345 24 0.0 0.0 0.00 0.00 0.00 84 1011.7
20260507165845 24 0.0 0.0 0.00 0.00 0.00 84 1011.6
20260507165345 24 0.0 0.0 0.00 0.00 0.00 85 1011.8
20260507164845 24 0.0 0.0 0.00 0.00 0.00 86 1012.0
20260507164345 23 0.0 0.0 0.00 0.00 0.00 86 1012.0
20260507163845 23 0.0 0.0 0.00 0.00 0.00 86 1012.1
20260507163345 24 0.0 0.0 0.00 0.00 0.00 85 1012.2
20260507162845 24 0.0 0.0 0.00 0.00 0.00 85 1012.3
20260507162345 24 0.0 0.0 0.00 0.00 0.00 86 1012.5
20260507161845 24 0.0 0.0 0.00 0.00 0.00 85 1012.6
20260507161345 24 0.0 0.0 0.00 0.00 0.00 86 1012.8
20260507160845 24 0.0 0.0 0.00 0.00 0.00 85 1012.9
20260507160345 24 0.0 0.0 0.00 0.00 0.00 85 1013.1
20260507155845 24 0.0 0.0 0.00 0.00 0.00 86 1013.2
20260507155345 24 0.0 0.0 0.00 0.00 0.00 87 1013.3
20260507154845 24 0.0 0.0 0.00 0.00 0.00 87 1013.5
20260507154345 25 0.0 0.0 0.00 0.00 0.00 81 1013.4
20260507153845 25 0.0 0.0 0.00 0.00 0.00 83 1013.7
20260507153345 24 0.0 0.0 0.00 0.00 0.00 85 1013.7
20260507152845 24 0.0 0.0 0.00 0.00 0.00 85 1013.8
20260507152345 24 0.0 0.0 0.00 0.00 0.00 85 1014.0
20260507151845 24 0.0 0.0 0.00 0.00 0.00 84 1014.1
20260507151345 25 0.0 0.0 0.00 0.00 0.00 84 1014.2
20260507150844 25 0.0 0.0 0.00 0.00 0.00 82 1014.2
20260507150345 25 0.0 0.0 0.00 0.00 0.00 84 1014.3
20260507145845 25 0.0 0.0 0.00 0.00 0.00 85 1014.4
20260507145344 24 0.0 0.0 0.00 0.00 0.00 86 1014.6
20260507144845 24 0.0 0.0 0.00 0.00 0.00 87 1014.8
20260507144344 23 0.0 0.0 0.00 0.00 0.00 88 1014.9
20260507143844 24 0.0 0.0 0.00 0.00 0.00 86 1014.8
20260507143345 24 0.0 0.0 0.00 0.00 0.00 87 1015.0
20260507142844 23 0.0 0.0 0.00 0.00 0.00 87 1015.1
20260507142345 23 0.0 0.0 0.00 0.00 0.00 88 1015.2
20260507141844 23 0.0 0.0 0.00 0.00 0.00 88 1015.3
20260507141344 23 0.0 0.0 0.00 0.00 0.00 88 1015.5
20260507140845 23 0.0 0.0 0.00 0.00 0.00 87 1015.4
20260507140344 23 0.0 0.0 0.00 0.00 0.00 88 1015.6
20260507135844 24 0.0 0.0 0.00 0.00 0.00 87 1015.7
20260507135344 24 0.0 0.0 0.00 0.00 0.00 88 1015.8
20260507134845 24 0.0 0.0 0.00 0.00 0.00 87 1015.9
20260507134345 23 0.0 0.0 0.00 0.00 0.00 90 1016.0
20260507133844 25 0.0 0.0 0.00 0.00 0.00 86 1016.2
20260507133344 23 0.0 0.0 0.00 0.00 0.00 89 1016.3
20260507132844 24 0.0 0.0 0.00 0.00 0.00 88 1016.4
20260507132344 24 0.0 0.0 0.00 0.00 0.00 87 1016.5
20260507131845 25 0.0 0.0 0.00 0.00 0.00 83 1016.5
20260507131344 25 0.0 0.0 0.00 0.00 0.00 85 1016.5
20260507130844 25 0.0 0.0 0.00 0.00 0.00 85 1016.6
20260507130344 24 0.0 0.0 0.00 0.00 0.00 86 1016.6
20260507125844 25 0.0 0.0 0.00 0.00 0.00 84 1016.6
20260507125344 24 0.0 0.0 0.00 0.00 0.00 86 1016.7
20260507124844 25 0.0 0.0 0.00 0.00 0.00 85 1016.9
20260507124344 24 0.0 0.0 0.00 0.00 0.00 85 1017.0
20260507123844 24 0.0 0.0 0.00 0.00 0.00 86 1017.0
20260507123344 24 0.0 0.0 0.00 0.00 0.00 87 1017.0
20260507122844 23 0.0 0.0 0.00 0.00 0.00 91 1016.9
20260507122344 23 0.0 0.0 0.00 0.00 0.00 94 1016.9
20260507121844 23 0.0 0.0 0.00 0.00 0.00 95 1017.1
20260507121344 23 0.0 0.0 0.00 0.00 0.00 95 1017.3
20260507120844 23 0.0 0.0 0.00 0.00 0.00 96 1017.3
20260507120344 23 0.0 0.0 0.00 0.00 0.00 98 1017.2
20260507115844 23 0.0 0.0 0.00 0.00 0.00 99 1017.2
20260507115344 23 0.0 0.0 0.00 0.00 0.00 98 1017.3
20260507114844 23 0.0 0.0 0.00 0.00 0.00 98 1017.2
20260507114344 23 0.0 0.0 0.00 0.00 0.00 97 1017.3
20260507113844 23 0.0 0.0 0.00 0.00 0.00 97 1017.3
20260507113344 23 0.0 0.0 0.00 0.00 0.00 97 1017.4
20260507112844 23 0.0 0.0 0.00 0.00 0.00 97 1017.4
20260507112344 23 0.0 0.0 0.00 0.00 0.00 97 1017.4
20260507111844 23 0.0 0.0 0.00 0.00 0.00 97 1017.3
20260507111344 23 0.0 0.0 0.00 0.00 0.00 97 1017.4
20260507110845 23 0.0 0.0 0.00 0.00 0.00 97 1017.2
20260507110344 23 0.0 0.0 0.00 0.00 0.00 96 1017.1
20260507105844 23 0.0 0.0 0.00 0.00 0.00 96 1017.2
20260507105344 23 0.0 0.0 0.00 0.00 0.00 97 1017.2
20260507104844 23 0.0 0.0 0.00 0.00 0.00 97 1017.1
20260507104344 23 0.0 0.0 0.00 0.00 0.00 97 1017.2
20260507103844 23 0.0 0.0 0.00 0.00 0.00 97 1017.1
20260507103344 23 0.0 0.0 0.00 0.00 0.00 98 1017.2
20260507102844 23 0.0 0.0 0.00 0.00 0.00 97 1017.2
20260507102344 23 0.0 0.0 0.00 0.00 0.00 97 1017.1
20260507101844 23 0.0 0.0 0.00 0.00 0.00 98 1017.1
20260507101344 23 0.0 0.0 0.00 0.00 0.00 98 1017.1
20260507100844 23 0.0 0.0 0.00 0.00 0.00 99 1017.1
20260507100344 23 0.0 0.0 0.00 0.00 0.00 98 1017.1
20260507095844 23 0.0 0.0 0.00 0.00 0.00 99 1017.1
20260507095344 23 0.0 0.0 0.00 0.00 0.00 99 1017.0
20260507094844 23 0.0 0.0 0.00 0.00 0.00 10 1017.1
20260507094344 23 0.0 0.0 0.00 0.00 0.00 10 1017.1
20260507093844 23 0.0 0.0 0.00 0.00 0.00 99 1017.1
20260507093345 23 0.0 0.0 0.00 0.00 0.00 99 1017.2
20260507092844 23 0.0 0.0 0.00 0.00 0.00 99 1017.2
20260507092344 23 0.0 0.0 0.00 0.00 0.00 10 1017.2
20260507091845 23 0.0 0.0 0.00 0.00 0.00 10 1017.0
20260507091344 23 0.0 0.0 0.00 0.00 0.00 10 1016.9
20260507090844 23 0.0 0.0 0.00 0.00 0.00 99 1016.9
20260507090344 23 0.0 0.0 0.00 0.00 0.00 99 1016.9
20260507085844 23 0.0 0.0 0.00 0.00 0.00 99 1016.9
20260507085344 23 0.0 0.0 0.00 0.00 0.00 99 1016.9
20260507084844 23 0.0 0.0 0.00 0.00 0.00 99 1016.8
20260507084344 23 0.0 0.0 0.00 0.00 0.00 99 1016.8
20260507083844 23 0.0 0.0 0.00 0.00 0.00 98 1016.8
20260507083344 23 0.0 0.0 0.00 0.00 0.00 98 1016.9
20260507082844 23 0.0 0.0 0.00 0.00 0.00 98 1016.8
20260507082344 23 0.0 0.0 0.00 0.00 0.00 98 1016.7
20260507081844 23 0.0 0.0 0.00 0.00 0.00 98 1016.6
20260507081344 23 0.0 0.0 0.00 0.00 0.00 98 1016.7
20260507080844 23 0.0 0.0 0.00 0.00 0.00 97 1016.7
20260507080344 23 0.0 0.0 0.00 0.00 0.00 98 1016.6
20260507075844 23 0.0 0.0 0.00 0.00 0.00 97 1016.7
20260507075344 23 0.0 0.0 0.00 0.00 0.00 97 1016.7
20260507074844 23 0.0 0.0 0.00 0.00 0.00 97 1016.6
20260507074344 23 0.0 0.0 0.00 0.00 0.00 97 1016.6
20260507073844 23 0.0 0.0 0.00 0.00 0.00 97 1016.7
20260507073344 23 0.0 0.0 0.00 0.00 0.00 96 1016.7
20260507072844 23 0.0 0.0 0.00 0.00 0.00 96 1016.8
20260507072344 23 0.0 0.0 0.00 0.00 0.00 96 1016.8
20260507071844 23 0.0 0.0 0.00 0.00 0.00 96 1016.7
20260507071344 23 0.0 0.0 0.00 0.00 0.00 95 1016.8
20260507070844 23 0.0 0.0 0.00 0.00 0.00 95 1016.9
20260507070344 23 0.0 0.0 0.00 0.00 0.00 95 1016.9
20260507065844 23 0.0 0.0 0.00 0.00 0.00 95 1016.9
20260507065344 23 0.0 0.0 0.00 0.00 0.00 94 1017.0
20260507064844 23 0.0 0.0 0.00 0.00 0.00 94 1017.1
20260507064345 23 0.0 0.0 0.00 0.00 0.00 94 1017.1
20260507063844 23 0.0 0.0 0.00 0.00 0.00 94 1017.1
20260507063344 23 0.0 0.0 0.00 0.00 0.00 94 1017.3
20260507062844 23 0.0 0.0 0.00 0.00 0.00 94 1017.4
20260507062344 23 0.0 0.0 0.00 0.00 0.00 94 1017.5
20260507061844 23 0.0 0.0 0.00 0.00 0.00 94 1017.5
20260507061344 23 0.0 0.0 0.00 0.00 0.00 94 1017.6
20260507060844 23 0.0 0.0 0.00 0.00 0.00 93 1017.7
20260507060344 23 0.0 0.0 0.00 0.00 0.00 94 1017.8
20260507055844 23 0.0 0.0 0.00 0.00 0.00 93 1017.8
20260507055344 23 0.0 0.0 0.00 0.00 0.00 93 1017.9
20260507054844 23 0.0 0.0 0.00 0.00 0.00 94 1017.9
20260507054344 23 0.0 0.0 0.00 0.00 0.00 94 1018.0
20260507053844 23 0.0 0.0 0.00 0.00 0.00 94 1018.2
20260507053344 23 0.0 0.0 0.00 0.00 0.00 94 1018.1
20260507052844 23 0.0 0.0 0.00 0.00 0.00 94 1018.0
20260507052344 23 0.0 0.0 0.00 0.00 0.00 94 1018.2
20260507051844 23 0.0 0.0 0.00 0.00 0.00 94 1018.3
20260507051344 23 0.0 0.0 0.00 0.00 0.00 94 1018.2
20260507050844 23 0.0 0.0 0.00 0.00 0.00 94 1018.3
20260507050344 23 0.0 0.0 0.00 0.00 0.00 94 1018.4
20260507045845 23 0.0 0.0 0.00 0.00 0.00 93 1018.5
20260507045344 23 0.0 0.0 0.00 0.00 0.00 93 1018.4
20260507044844 23 0.0 0.0 0.00 0.00 0.00 93 1018.4
20260507044344 23 0.0 0.0 0.00 0.00 0.00 93 1018.5
20260507043844 23 0.0 0.0 0.00 0.00 0.00 93 1018.5
20260507043344 23 0.0 0.0 0.00 0.00 0.00 93 1018.6
20260507042844 23 0.0 0.0 0.00 0.00 0.00 93 1018.6
20260507042344 23 0.0 0.0 0.00 0.00 0.00 93 1018.7
20260507041844 23 0.0 0.0 0.00 0.00 0.00 93 1018.7
20260507041344 23 0.0 0.0 0.00 0.00 0.00 93 1018.7
20260507040844 23 0.0 0.0 0.00 0.00 0.00 92 1018.8
20260507040344 23 0.0 0.0 0.00 0.00 0.00 92 1018.9
20260507035844 23 0.0 0.0 0.00 0.00 0.00 92 1019.0
20260507035344 23 0.0 0.0 0.00 0.00 0.00 92 1019.0
20260507034844 23 0.0 0.0 0.00 0.00 0.00 92 1019.1
20260507034344 23 0.0 0.0 0.00 0.00 0.00 92 1019.2
20260507033844 23 0.0 0.0 0.00 0.00 0.00 91 1019.1
20260507033344 23 0.0 0.0 0.00 0.00 0.00 91 1019.1
20260507032844 24 0.0 0.0 0.00 0.00 0.00 91 1019.1
20260507032344 24 0.0 0.0 0.00 0.00 0.00 91 1019.2
20260507031844 24 0.0 0.0 0.00 0.00 0.00 90 1019.4
20260507031344 24 0.0 0.0 0.00 0.00 0.00 90 1019.3
20260507030844 24 0.0 0.0 0.00 0.00 0.00 90 1019.3
20260507030344 24 0.0 0.0 0.00 0.00 0.00 90 1019.4
20260507025844 24 0.0 0.0 0.00 0.00 0.00 90 1019.4
20260507025344 24 0.0 0.0 0.00 0.00 0.00 90 1019.6
20260507024844 24 0.0 0.0 0.00 0.00 0.00 89 1019.5
20260507024344 24 0.0 0.0 0.00 0.00 0.00 89 1019.5
20260507023844 24 0.0 0.0 0.00 0.00 0.00 88 1019.6
20260507023344 25 0.0 0.0 0.00 0.00 0.00 88 1019.6
20260507022844 25 0.0 0.0 0.00 0.00 0.00 88 1019.6
20260507022344 25 0.0 0.0 0.00 0.00 0.00 87 1019.7
20260507021844 25 0.0 0.0 0.00 0.00 0.00 88 1019.8
20260507021344 25 0.0 0.0 0.00 0.00 0.00 88 1019.8
20260507020844 25 0.0 0.0 0.00 0.00 0.00 88 1019.7
20260507020344 24 0.0 0.0 0.00 0.00 0.00 90 1019.8
20260507015844 24 0.0 0.0 0.00 0.00 0.00 91 1019.7
20260507015344 24 0.0 0.0 0.00 0.00 0.00 90 1019.8
20260507014844 24 0.0 0.0 0.00 0.00 0.00 90 1019.9
20260507014344 25 0.0 0.0 0.00 0.00 0.00 89 1019.9
20260507013844 24 0.0 0.0 0.00 0.00 0.00 90 1019.8
20260507013344 24 0.0 0.0 0.00 0.00 0.00 90 1019.9
20260507012844 25 0.0 0.0 0.00 0.00 0.00 90 1019.8
20260507012344 25 0.0 0.0 0.00 0.00 0.00 90 1019.9
20260507011844 25 0.0 0.0 0.00 0.00 0.00 90 1019.9
20260507011344 24 0.0 0.0 0.00 0.00 0.00 91 1020.0
20260507010844 24 0.0 0.0 0.00 0.00 0.00 92 1019.9
20260507010344 25 0.0 0.0 0.00 0.00 0.00 91 1019.9
20260507005844 24 0.0 0.0 0.00 0.00 0.00 92 1019.9
20260507005344 23 0.0 0.0 0.00 0.00 0.00 96 1019.9
20260507004844 23 0.0 0.0 0.00 0.00 0.00 96 1019.9
20260507004344 23 0.0 0.0 0.00 0.00 0.00 96 1020.0
20260507003844 23 0.0 0.0 0.00 0.00 0.00 96 1020.1
20260507003344 23 0.0 0.0 0.00 0.00 0.00 96 1020.1
20260507002844 23 0.0 0.0 0.00 0.00 0.00 96 1020.1
20260507002344 23 0.0 0.0 0.00 0.00 0.00 96 1020.2
20260507001844 23 0.0 0.0 0.00 0.00 0.00 95 1020.2
20260507001344 23 0.0 0.0 0.00 0.00 0.00 95 1020.1
20260507000844 23 0.0 0.0 0.00 0.00 0.00 95 1020.1
20260507000344 23 0.0 0.0 0.00 0.00 0.00 95 1020.1
20260506235844 23 0.0 0.0 0.00 0.00 0.00 95 1020.2
20260506235344 23 0.0 0.0 0.00 0.00 0.00 95 1020.3
20260506234844 23 0.0 0.0 0.00 0.00 0.00 95 1020.3
20260506234344 23 0.0 0.0 0.00 0.00 0.00 95 1020.3
20260506233844 23 0.0 0.0 0.00 0.00 0.00 95 1020.3
20260506233344 23 0.0 0.0 0.00 0.00 0.00 95 1020.3
20260506232844 23 0.0 0.0 0.00 0.00 0.00 95 1020.3
20260506232344 23 0.0 0.0 0.00 0.00 0.00 95 1020.3
20260506231844 23 0.0 0.0 0.00 0.00 0.00 95 1020.1
20260506231344 23 0.0 0.0 0.00 0.00 0.00 95 1020.1
20260506230844 23 0.0 0.0 0.00 0.00 0.00 95 1020.0
20260506230344 23 0.0 0.0 0.00 0.00 0.00 95 1019.9
20260506225844 23 0.0 0.0 0.00 0.00 0.00 94 1020.0
20260506225344 23 0.0 0.0 0.00 0.00 0.00 94 1019.9
20260506224844 23 0.0 0.0 0.00 0.00 0.00 94 1019.9
20260506224344 24 0.0 0.0 0.00 0.00 0.00 94 1020.0
20260506223844 24 0.0 0.0 0.00 0.00 0.00 94 1019.8
20260506223344 24 0.0 0.0 0.00 0.00 0.00 94 1019.9
20260506222844 24 0.0 0.0 0.00 0.00 0.00 94 1019.9
20260506222344 24 0.0 0.0 0.00 0.00 0.00 94 1019.9
20260506221844 24 0.0 0.0 0.00 0.00 0.00 94 1020.0
20260506221344 24 0.0 0.0 0.00 0.00 0.00 93 1020.0
20260506220844 24 0.0 0.0 0.00 0.00 0.00 93 1020.0
20260506220344 24 0.0 0.0 0.00 0.00 0.00 93 1019.9
20260506215844 24 0.0 0.0 0.00 0.00 0.00 93 1019.8
20260506215344 24 0.0 0.0 0.00 0.00 0.00 93 1019.7
20260506214844 24 0.0 0.0 0.00 0.00 0.00 92 1019.7
20260506214344 24 0.0 0.0 0.00 0.00 0.00 92 1019.6
20260506213844 24 0.0 0.0 0.00 0.00 0.00 92 1019.6